User: anonymous   Login
Location: Hamburg
(53.5500°N, 10.0000°E)
Time: 19:28:36
(UTC+02:00)
Language:

Iridium 10 - Orbit

View from above orbital plane
View from above orbital plane
View from above satellite
View from above satellite

Ground track
Ground track

The orbit data is extracted from the following two-line orbital elements,

1 24839U 97030D   18145.57513170 +.00000127 +00000-0 +38443-4 0  9999
2 24839 086.3994 206.9280 0002438 094.6389 265.5086 14.34221724096018
Epoch (UTC): 25 May 2018 13:48:11
Eccentricity: 0.0002438
inclination: 86.3994°
perigee height: 776 km
apogee height: 779 km
right ascension of ascending node: 206.9280°
argument of perigee: 94.6389°
revolutions per day: 14.34221724
mean anomaly at epoch: 265.5086°
orbit number at epoch: 9601

The dashed part of the orbit path shows where the satellite is in the earth's shadow,  

DLR